Miscellaneous Local Product
Issued by NWS North Platte, NE

Home | Current Version | Previous Version | Graphics & Text | Print | Product List | Glossary On
Versions: 1 2 3 4 5 6 7 8 9 10 11 12 13 14 15 16 17 18 19 20 21 22 23 24 25 26 27 28 29 30 31 32 33 34 35 36 37 38 39 40 41 42 43 44 45 46 47 48 49 50
284
AXUS43 KLBF 270310
MISLBF


WESTERN AND NORTH CENTRAL NEBRASKA HOURLY WEATHER ROUNDUP
NATIONAL WEATHER SERVICE NORTH PLATTE NE
1000 PM CDT WED APR 26 2017

NOTE: "FAIR" INDICATES FEW OR NO CLOUDS BELOW 12,000 FEET WITH NO
SIGNIFICANT WEATHER AND/OR OBSTRUCTIONS TO VISIBILITY.

NOTE: STATIONS NOT REPORTING VARIABLES SUCH AS SKY/WEATHER OR
PRESSURE ARE PROVIDED BY RAWS AND APRS NETWORKS AND ARE NOT UNDER
NATIONAL WEATHER SERVICE QUALITY CONTROL.

...OBSERVATIONS IN AND NEAR THE EASTERN PANHANDLE OF NEBRASKA...

CITY           SKY/WX    TMP DP  RH WIND       PRES   REMARKS
PINE RIDGE     CLEAR     33  29  85 E3        29.73R
CHADRON        CLEAR     35  30  82 NE6       29.73R WCI  30
ALLIANCE       CLOUDY    38  31  76 E8        29.70R WCI  32
SIDNEY         MOCLDY    40  38  93 NE8       29.72R WCI  34
CRESCENT LAKE    N/A     43  31  63 E6          N/A
$$

...OBSERVATIONS IN NORTHERN NEBRASKA AND FAR SOUTHERN SOUTH DAKOTA...

CITY           SKY/WX    TMP DP  RH WIND       PRES   REMARKS
WINNER         FAIR      34  27  75 E5        29.71R WCI  30
VALENTINE      CLEAR     32  25  75 W8        29.72R WCI  25
THEDFORD       CLEAR     33  28  82 N5        29.73R WCI  29
AINSWORTH      CLEAR     33  29  86 W7        29.71R WCI  27
O`NEILL        CLEAR     35  28  78 N7        29.70R WCI  29
ORD            CLEAR     33  27  78 NW7       29.70R WCI  27
BROKEN BOW     CLEAR     32  26  78 N8        29.71R WCI  25
VALENTINE NWR    N/A     33  27  79 N5G13       N/A  WCI  28
HALSEY           N/A     35  27  74 NW3         N/A
BUTTE            N/A     34  28  79 CALM        N/A
CHAMBERS         N/A     35  28  76 CALM        N/A
EWING            N/A     35  31  87 CALM        N/A
$$

...OBSERVATIONS IN SOUTHWEST NEBRASKA AND FAR NORTHEAST COLORADO...

CITY           SKY/WX    TMP DP  RH WIND       PRES   REMARKS
HOLYOKE        FAIR      46  37  71 N7        29.71R
IMPERIAL       MOCLDY    43  31  62 E7        29.70R
OGALLALA       CLOUDY    46  34  64 CALM      29.73R
NORTH PLATTE   CLEAR     36  29  75 CALM      29.72R
MCCOOK         CLEAR     40  28  62 E3        29.71R
LEXINGTON      CLEAR     37  29  75 N6        29.71R WCI  32
STAPLETON        N/A     33  28  81 CALM        N/A
GOTHENBURG       N/A     43  28  56 N3          N/A
CALLAWAY         N/A     37  30  75 N7          N/A  WCI  31
$$

...OBSERVATIONS IN CENTRAL LINCOLN COUNTY AREA...

CITY           SKY/WX    TMP DP  RH WIND       PRES   REMARKS
N.P. AIRPORT   CLEAR     36  29  75 CALM      29.72R
N.P. DOWNTOWN    N/A     41  32  69 CALM        N/A
N.P. SOUTHEAST   N/A     40  29  64 CALM        N/A
N.P. HILLCREST   N/A     39  31  72 NE9         N/A  WCI  33
$$

...SOME OBSERVATIONS FROM AROUND THE REGION...

CITY           SKY/WX    TMP DP  RH WIND       PRES   REMARKS
DENVER         MOCLDY    43  31  62 E12       29.70R
LIMON          CLOUDY    45  35  68 W8        29.74R
ASPEN          CLOUDY    37  30  75 SE7       29.81F WCI  32
LARAMIE        CLOUDY    31  30  96 S7        29.72F WCI  24
CASPER         CLOUDY    40  35  83 E9        29.66F WCI  34
CHEYENNE       CLOUDY    40  31  70 W12       29.73R WCI  33
SCOTTSBLUFF    LGT RAIN  46  39  76 SE7       29.70R
GRAND ISLAND   PTCLDY    33  28  81 N5        29.73R WCI  29
OMAHA          CLOUDY    42  31  64 NW13      29.69R
SIOUX FALLS    CLOUDY    33  27  78 N14       29.68R WCI  23
PIERRE         CLEAR     32  25  75 NE7       29.72R WCI  26
RAPID CITY     CLEAR     32  27  81 W6        29.73S WCI  26
BISMARCK       CLOUDY    38  30  73 E10       29.78R WCI  31
KANSAS CITY    CLOUDY    44  35  70 NW8       29.66S
HILL CITY      CLEAR     42  32  67 E3        29.72R
WICHITA        CLEAR     48  38  68 N6        29.72R
DODGE CITY     CLEAR     43  32  65 NE3       29.73R
OKLAHOMA CITY  PTCLDY    48  40  73 CALM      29.75R
DALLAS         CLEAR     55  46  71 N5        29.76S
AMARILLO       CLEAR     47  35  63 E7        29.77R
$$




USA.gov is the U.S. government's official web portal to all federal, state and local government web resources and services.